"Time","Temp","Dewpoint","Humidity","Pressure","Direction","Speed","Gust","Precip","PrecipRate"
"00:04:57","37.6","29.4","72","30.19","345","5.1","13","0.00","0.00"
"00:09:58","37.8","29.4","71.4","30.19","343","5.6","15","0.00","0.00"
"00:14:57","37.9","29.1","70.4","30.20","335","5.7","15","0.00","0.00"
"00:19:57","37.8","28.9","69.9","30.20","335","6.2","14","0.00","0.00"
"00:24:58","37.8","28.5","69.2","30.20","327","8","15","0.00","0.00"
"00:29:56","37.6","28.3","68.7","30.20","337","8.3","18","0.00","0.00"
"00:34:56","37.4","28.1","68.8","30.20","337","8.9","20","0.00","0.00"
"00:39:59","37.2","28","69","30.20","325","6.8","20","0.00","0.00"
"00:44:58","37","27.9","69.3","30.20","341","7.8","19","0.00","0.00"
"00:49:57","36.7","27.8","69.8","30.20","326","8.1","19","0.00","0.00"
"00:54:57","36.5","27.7","70.2","30.20","339","6.6","13","0.00","0.00"
"00:59:56","36.3","27.4","70","30.20","330","8","23","0.00","0.00"
"01:04:56","36.2","27.4","70","30.20","335","8.9","18","0.00","0.00"
"01:09:57","36.1","27.3","70","30.19","334","7.8","16.1","0.00","0.00"
"01:14:57","35.9","27.1","70","30.20","337","6.7","17","0.00","0.00"
"01:19:58","35.7","27","70.2","30.20","335","6.4","18","0.00","0.00"
"01:24:58","35.6","26.8","70","30.20","336","7.5","18","0.00","0.00"
"01:29:56","35.7","26.8","69.8","30.20","332","6.8","19","0.00","0.00"
"01:34:58","35.6","26.8","70","30.20","328","7.1","17","0.00","0.00"
"01:39:56","35.4","26.7","70.2","30.20","332","7.3","15","0.00","0.00"
"01:44:59","35.4","26.6","70.2","30.21","344","5.2","16","0.00","0.00"
"01:49:58","35.3","26.7","70.5","30.21","325","6.1","15","0.00","0.00"
"01:54:58","35.4","26.6","70","30.21","325","8.7","18.4","0.00","0.00"
"01:59:59","35.5","26.7","70","30.21","328","6.5","12","0.00","0.00"
"02:04:59","35.4","26.6","70","30.21","326","5.5","12","0.00","0.00"
"02:09:56","35.3","26.7","70.5","30.21","329","3.4","12","0.00","0.00"
"02:14:56","35.2","26.7","71","30.21","322","2.2","9","0.00","0.00"
"02:19:57","35","26.5","71","30.21","342","2.1","6","0.00","0.00"
"02:24:57","34.8","26.4","71.1","30.21","335","4.3","10.4","0.00","0.00"
"02:29:56","34.8","26.6","71.8","30.21","318","2.2","6","0.00","0.00"
"02:34:56","34.7","26.6","72","30.21","322","3.3","5","0.00","0.00"
"02:39:59","34.5","26.4","72","30.21","319","3","6","0.00","0.00"
"02:44:56","34.5","26.6","72.7","30.21","317","2.7","5","0.00","0.00"
"02:49:59","34.3","26.5","73","30.21","321","3.1","6","0.00","0.00"
"02:54:59","34.2","26.4","73","30.21","326","3.1","6","0.00","0.00"
"02:59:57","34.1","26.3","73","30.21","341","3.4","7","0.00","0.00"
"03:04:58","33.9","26.2","73","30.21","321","2.9","7","0.00","0.00"
"03:09:58","33.9","26.2","73.2","30.21","319","3.2","7","0.00","0.00"
"03:14:57","33.8","26.4","74","30.21","319","2.4","6","0.00","0.00"
"03:19:57","33.6","26.2","74","30.20","328","2.5","5","0.00","0.00"
"03:24:57","33.4","26.2","74.6","30.20","335","2.7","5","0.00","0.00"
"03:29:59","33.4","26.3","75","30.20","321","2.3","5","0.00","0.00"
"03:34:58","33.3","26.2","75","30.20","333","2.5","5","0.00","0.00"
"03:39:58","33.2","26.1","75","30.20","344","2.3","6","0.00","0.00"
"03:44:59","33","25.9","75","30.20","335","1.9","7","0.00","0.00"
"03:49:56","32.9","25.8","75","30.20","321","2.2","5","0.00","0.00"
"03:54:57","32.8","26.1","75.9","30.20","339","3","7","0.00","0.00"
"03:59:56","32.8","26.1","76","30.21","332","3.4","7","0.00","0.00"
"04:04:57","32.8","26.1","76","30.21","335","3.8","6","0.00","0.00"
"04:09:58","33","26.3","76","30.21","337","2.5","6","0.00","0.00"
"04:14:58","33.1","26","75.2","30.21","342","2.2","6","0.00","0.00"
"04:19:58","33","25.9","75","30.21","342","0.6","3.5","0.00","0.00"
"04:24:59","32.8","25.7","75","30.21","331","1.6","6","0.00","0.00"
"04:29:58","32.7","26","76","30.21","331","1.5","6","0.00","0.00"
"04:34:58","32.7","26","76","30.20","329","2","6","0.00","0.00"
"04:39:59","32.8","26","75.9","30.20","336","2.3","7","0.00","0.00"
"04:44:56","32.9","26.1","75.7","30.20","319","1.7","7","0.00","0.00"
"04:49:56","32.9","26","75.4","30.20","326","1.4","4","0.00","0.00"
"04:54:56","32.8","26","75.7","30.20","327","1.4","3.5","0.00","0.00"
"04:59:56","32.6","25.9","76","30.20","343","2.4","6","0.00","0.00"
"05:04:57","32.5","25.9","76.2","30.20","339","2.2","5","0.00","0.00"
"05:09:58","32.5","26","76.6","30.20","347","1.3","5","0.00","0.00"
"05:14:59","32.4","26","77","30.21","346","0.8","3.5","0.00","0.00"
"05:19:57","32.4","25.9","76.6","30.21","5","1.4","5","0.00","0.00"
"05:24:59","32.4","25.8","76.6","30.21","338","1.7","5","0.00","0.00"
"05:29:58","32.6","26","76.5","30.21","320","3.5","7","0.00","0.00"
"05:34:58","33.1","26.4","76","30.21","330","4","7","0.00","0.00"
"05:39:58","33.2","26.5","76","30.21","329","2.7","6","0.00","0.00"
"05:44:59","33.2","26.5","76","30.21","336","2.1","5","0.00","0.00"
"05:49:56","33","26.2","75.7","30.21","330","0.8","3.5","0.00","0.00"
"05:54:57","33","26","75.4","30.21","350","0.8","5","0.00","0.00"
"05:59:58","32.8","26.1","75.9","30.22","353","0.9","3.5","0.00","0.00"
"06:04:59","32.7","26","76","30.22","331","1.4","4","0.00","0.00"
"06:09:57","32.5","26.1","76.9","30.22","339","3.1","6","0.00","0.00"
"06:14:58","32.5","26.1","77","30.22","338","3.1","6","0.00","0.00"
"06:19:59","32.6","26.2","77","30.22","339","3","6","0.00","0.00"
"06:24:56","32.8","26.4","77","30.22","339","2.7","5","0.00","0.00"
"06:29:59","32.8","26.3","76.6","30.23","338","3.1","9.2","0.00","0.00"
"06:34:56","32.8","26.4","76.9","30.23","311","2.6","7","0.00","0.00"
"06:39:59","32.7","26.3","77","30.23","337","3","7","0.00","0.00"
"06:44:56","32.7","26.3","77","30.23","336","3.8","7","0.00","0.00"
"06:49:57","32.7","26.3","77","30.23","341","2.5","5","0.00","0.00"
"06:54:57","32.7","26.3","77","30.23","335","2.9","5","0.00","0.00"
"06:59:56","32.6","26.2","77","30.23","325","2.1","6","0.00","0.00"
"07:04:58","32.5","26.1","77","30.23","305","1.4","3.5","0.00","0.00"
"07:09:59","32.3","25.9","77","30.23","294","0.3","3","0.00","0.00"
"07:14:56","32.2","26","77.9","30.23","294","0.3","2.3","0.00","0.00"
"07:19:58","31.9","25.8","78","30.23","294","0.5","2.3","0.00","0.00"
"07:24:56","31.8","25.7","78","30.23","294","0.7","2.3","0.00","0.00"
"07:29:56","31.6","25.7","78.9","30.24","294","0","1.2","0.00","0.00"
"07:34:57","31.3","25.5","79","30.24","294","0","0","0.00","0.00"
"07:39:58","31","25.3","79.2","30.24","294","0","1.2","0.00","0.00"
"07:44:59","30.8","25.4","80","30.24","294","0","1.2","0.00","0.00"
"07:49:57","30.6","25.5","80.9","30.24","294","0","0","0.00","0.00"
"07:54:59","30.5","25.4","81.2","30.24","294","0.1","2.3","0.00","0.00"
"07:59:56","30.5","25.7","82","30.24","294","0.1","2.3","0.00","0.00"
"08:04:57","30.6","25.8","81.9","30.24","291","0.8","3.5","0.00","0.00"
"08:09:59","30.8","25.9","81.5","30.24","256","0.8","4","0.00","0.00"
"08:14:56","31.1","26.1","81.4","30.25","241","0.8","4","0.00","0.00"
"08:19:58","31.5","26.3","81","30.25","253","0.9","4","0.00","0.00"
"08:24:56","32.2","26.7","80.1","30.25","303","1.2","3.5","0.00","0.00"
"08:29:56","33.1","27.2","78.8","30.25","294","1.7","7","0.00","0.00"
"08:34:56","34","27.6","77.1","30.25","319","2.8","5","0.00","0.00"
"08:39:56","34.8","28","76","30.25","319","2.5","5","0.00","0.00"
"08:44:56","35.4","28.1","74.5","30.26","331","3.8","10.4","0.00","0.00"
"08:49:58","36","28.3","73.4","30.26","325","4.5","10","0.00","0.00"
"08:54:58","36.5","28.5","72.4","30.26","321","4.9","10.4","0.00","0.00"
"08:59:58","37","28.7","71.6","30.26","341","4.9","15","0.00","0.00"
"09:04:57","37.5","28.9","70.8","30.26","330","4.1","10.4","0.00","0.00"
"09:09:58","37.8","29","70.2","30.26","324","4.2","10","0.00","0.00"
"09:14:59","38.1","28.8","69","30.26","344","6.8","20","0.00","0.00"
"09:19:58","38.2","28.9","69","30.26","330","4.2","10","0.00","0.00"
"09:24:58","38.4","28.8","68.1","30.26","322","6","14","0.00","0.00"
"09:29:57","38.5","28.8","67.6","30.26","320","6.6","13","0.00","0.00"
"09:34:57","38.6","28.8","67.8","30.26","321","6.5","16.1","0.00","0.00"
"09:39:57","38.8","28.9","67.3","30.26","318","8.4","20","0.00","0.00"
"09:44:57","38.9","28.8","66.8","30.26","342","7.8","19","0.00","0.00"
"09:49:57","39","29","67","30.26","351","6.6","15","0.00","0.00"
"09:54:59","39.2","29","66.4","30.26","341","6.1","14","0.00","0.00"
"09:59:58","39.4","29.2","66.6","30.26","327","6.2","14","0.00","0.00"
"10:04:58","39.5","29","66","30.26","323","7.6","15","0.00","0.00"
"10:09:59","39.5","29.3","66.6","30.26","334","8.6","16.1","0.00","0.00"
"10:14:56","39.6","29.2","66.3","30.26","335","7.6","17.3","0.00","0.00"
"10:19:56","39.9","29.8","66.8","30.25","326","4.3","10.4","0.00","0.00"
"10:24:58","40.5","30.1","66.4","30.24","325","4.2","12","0.00","0.00"
"10:29:58","40.7","29.7","64.8","30.24","330","6.4","13","0.00","0.00"
"10:34:58","40.6","29.6","64.8","30.24","326","5.7","14","0.00","0.00"
"10:39:58","40.7","29.6","64.5","30.24","338","8.3","18.4","0.00","0.00"
"10:44:59","40.7","29.6","64.4","30.24","343","6","18.4","0.00","0.00"
"10:49:59","41.1","30.1","64.9","30.24","346","5.9","14","0.00","0.00"
"10:54:57","41.3","30.1","64.2","30.24","331","5.6","15","0.00","0.00"
"10:59:55","41.5","30.3","64.2","30.24","330","6.2","14","0.00","0.00"
"11:04:56","41.7","30.5","64.3","30.23","335","5.3","13","0.00","0.00"
"11:09:56","41.9","30.5","63.7","30.23","336","4.6","12","0.00","0.00"
"11:14:57","42.2","31","64.1","30.23","317","4.2","12","0.00","0.00"
"11:19:58","42.6","30.8","62.7","30.23","319","4.6","13","0.00","0.00"
"11:24:58","42.6","30.2","61.3","30.22","326","5.3","13","0.00","0.00"
"11:29:58","42.6","30.4","61.7","30.22","352","6.1","14","0.00","0.00"
"11:34:58","42.3","29.6","60.6","30.22","328","7.2","14","0.00","0.00"
"11:39:56","42.2","30","61.6","30.22","331","5.3","12","0.00","0.00"
"11:44:57","42.3","29.9","61.2","30.22","331","4.7","12","0.00","0.00"
"11:49:57","42.6","30.4","61.8","30.21","347","5.7","13","0.00","0.00"
"11:54:57","42.6","29.8","60.2","30.21","324","5.6","13","0.00","0.00"
"11:59:57","42.6","30.5","62.1","30.21","298","4.5","12","0.00","0.00"
"12:04:57","43","30.4","60.7","30.21","335","6.3","14","0.00","0.00"
"12:09:58","43.2","30.4","60.5","30.21","344","4.9","12","0.00","0.00"
"12:14:59","43.4","30.7","60.7","30.21","324","5","12","0.00","0.00"
"12:19:57","43.5","30.6","60.4","30.21","333","5.6","16.1","0.00","0.00"
"12:24:58","43.5","30.3","59.4","30.20","347","5.6","17.3","0.00","0.00"
"12:29:57","43.7","30.2","58.5","30.20","324","5.5","13","0.00","0.00"
"12:34:59","43.9","30.6","59.1","30.20","325","4.8","13","0.00","0.00"
"12:39:59","44.1","30.3","58.1","30.19","332","6.4","13","0.00","0.00"
"12:44:56","44","30.4","58.5","30.19","323","6","12","0.00","0.00"
"12:49:57","43.8","30.1","58.1","30.19","315","6.1","13","0.00","0.00"
"12:54:57","43.7","29.9","58","30.19","339","6.6","13","0.00","0.00"
"12:59:56","43.9","29.9","57.5","30.19","348","5.4","10.4","0.00","0.00"
"13:04:56","44.4","30","56.7","30.19","346","5.6","13","0.00","0.00"
"13:09:56","44.7","30.2","56.5","30.19","323","4.4","13","0.00","0.00"
"13:14:57","44.9","30.1","56.1","30.19","335","5.6","12","0.00","0.00"
"13:19:59","44.7","29.3","54.4","30.19","322","5.3","12","0.00","0.00"
"13:24:57","44.7","30.1","56.3","30.19","315","3.9","12","0.00","0.00"
"13:29:56","45.2","30.9","57.3","30.19","340","4.8","14","0.00","0.00"
"13:34:57","45.3","30.1","55","30.18","339","4.7","14","0.00","0.00"
"13:39:58","45.3","30","54.6","30.18","336","5.2","10.4","0.00","0.00"
"13:44:58","45.5","30.2","55","30.18","340","3.7","9.2","0.00","0.00"
"13:49:58","45.6","29.8","53.9","30.18","327","4.5","12","0.00","0.00"
"13:54:58","45.6","30.5","55.3","30.18","306","3","7","0.00","0.00"
"13:59:57","45.9","30.2","54.1","30.18","340","4.5","10.4","0.00","0.00"
"14:04:57","45.9","30.1","53.9","30.18","309","5.2","11.5","0.00","0.00"
"14:09:57","45.7","29.7","53.5","30.18","332","5","12","0.00","0.00"
"14:14:57","45.8","30.1","54","30.18","339","5.1","15","0.00","0.00"
"14:19:57","46.2","30.4","53.9","30.17","334","4.7","10.4","0.00","0.00"
"14:24:57","46.4","30.4","53.4","30.17","304","3.5","7","0.00","0.00"
"14:29:56","46.4","30.2","53","30.17","328","4.5","11","0.00","0.00"
"14:34:56","46.5","29.4","51.1","30.17","350","5.5","12","0.00","0.00"
"14:39:56","46.2","29.6","52.2","30.16","315","4.7","12","0.00","0.00"
"14:44:56","46.2","29.9","52.7","30.16","307","2.7","7","0.00","0.00"
"14:49:58","46.5","30.3","53.1","30.16","321","3","6","0.00","0.00"
"14:54:59","46.7","30","52.1","30.16","338","4.2","12","0.00","0.00"
"14:59:58","46.7","29.5","51","30.17","340","4.5","10.4","0.00","0.00"
"15:04:58","46.5","30","52.4","30.17","321","3.2","7","0.00","0.00"
"15:09:59","46","29.1","51.4","30.17","335","3.9","10.4","0.00","0.00"
"15:14:59","45.5","28.7","51.7","30.17","321","4","10","0.00","0.00"
"15:19:59","45.2","29","52.8","30.16","303","3.8","7","0.00","0.00"
"15:24:56","45.1","28.9","52.9","30.16","318","3","5","0.00","0.00"
"15:29:56","45.4","29.3","53.2","30.17","326","3.6","9.2","0.00","0.00"
"15:34:59","45.7","29.9","53.6","30.17","329","3.7","7","0.00","0.00"
"15:39:56","46","29.6","52.7","30.17","320","3.7","7","0.00","0.00"
"15:44:59","45.9","29.2","52","30.17","326","4.3","12","0.00","0.00"
"15:49:56","45.6","28.9","51.9","30.17","312","4.5","12","0.00","0.00"
"15:54:59","45.1","28.8","52.5","30.17","342","3.7","8.1","0.00","0.00"
"15:59:59","44.7","28.8","53.3","30.17","320","3.7","8","0.00","0.00"
"16:04:59","44.3","28.8","54.3","30.17","322","3.2","8","0.00","0.00"
"16:09:56","44","28.5","54.2","30.17","338","3.1","8.1","0.00","0.00"
"16:14:56","43.8","28.6","54.7","30.18","311","2","5","0.00","0.00"
"16:19:56","43.7","28.5","54.8","30.18","336","3.1","9.2","0.00","0.00"
"16:24:58","43.6","28.2","54.5","30.18","332","2.4","6","0.00","0.00"
"16:29:58","43.4","28.3","55.1","30.18","349","1.4","5","0.00","0.00"
"16:34:58","43.1","28","55","30.17","335","1.2","4","0.00","0.00"
"16:39:58","42.9","28","55.5","30.17","319","2.4","5","0.00","0.00"
"16:44:59","42.6","28.1","56.1","30.18","338","2.1","6","0.00","0.00"
"16:49:59","42.4","28.1","56.6","30.18","335","1.8","6","0.00","0.00"
"16:54:56","42.3","28.1","57","30.18","330","1.7","5","0.00","0.00"
"16:59:56","42.1","27.9","57","30.18","334","1.6","4","0.00","0.00"
"17:04:57","41.8","27.9","57.5","30.17","337","1.1","4","0.00","0.00"
"17:09:59","41.4","27.7","58","30.17","337","1.1","4","0.00","0.00"
"17:14:56","41.1","27.7","58.6","30.18","338","1.1","4","0.00","0.00"
"17:19:56","40.8","27.6","59","30.18","341","0.5","3.5","0.00","0.00"
"17:24:59","40.5","27.4","59.2","30.18","342","0.3","2","0.00","0.00"
"17:29:59","40.1","27.9","61.5","30.18","342","0","0","0.00","0.00"
"17:34:56","39.7","27.7","62","30.18","342","0.1","1.2","0.00","0.00"
"17:39:57","39.3","27.6","62.6","30.18","342","0.2","2.3","0.00","0.00"
"17:44:59","38.8","27.7","64.1","30.18","342","0","1.2","0.00","0.00"
"17:49:56","38.4","27.7","65.2","30.18","342","0.1","1.2","0.00","0.00"
"17:54:57","38","27.8","66.7","30.18","342","0","1.2","0.00","0.00"
"17:59:56","37.5","27.9","67.9","30.19","342","0","0","0.00","0.00"
"18:04:57","37","27.8","69","30.19","342","0","0","0.00","0.00"
"18:09:58","36.6","27.7","70","30.19","342","0","0","0.00","0.00"
"18:14:57","36.2","27.9","71.5","30.19","342","0","0","0.00","0.00"
"18:19:58","35.9","27.7","72","30.19","342","0","0","0.00","0.00"
"18:24:58","35.6","27.8","72.8","30.19","342","0.2","2.3","0.00","0.00"
"18:29:58","35.4","27.7","73.3","30.19","342","0.1","1.2","0.00","0.00"
"18:34:59","35.2","28.1","75.1","30.19","342","0","1.2","0.00","0.00"
"18:39:59","34.9","28","75.7","30.19","342","0","1","0.00","0.00"
"18:44:56","34.6","28","76.7","30.19","342","0.3","1.2","0.00","0.00"
"18:49:56","34.4","28","77.3","30.19","342","0","0","0.00","0.00"
"18:54:56","34.2","27.4","76.1","30.19","342","0.3","2","0.00","0.00"
"18:59:58","34.1","27.3","76.2","30.19","342","0.6","2.3","0.00","0.00"
"19:04:55","34.1","27.4","76.2","30.18","342","0","1","0.00","0.00"
"19:09:56","34","27.8","77.7","30.18","342","0","0","0.00","0.00"
"19:14:57","33.7","27.9","78.8","30.19","342","0.1","1.2","0.00","0.00"
"19:19:57","33.4","27.6","79","30.19","342","0","1.2","0.00","0.00"
"19:24:58","33.1","27.3","79","30.19","342","0","0","0.00","0.00"
"19:29:57","32.9","27.4","79.9","30.20","342","0","0","0.00","0.00"
"19:34:58","32.6","27.1","80","30.20","342","0","0","0.00","0.00"
"19:39:58","32.4","26.9","80","30.20","342","0","0","0.00","0.00"
"19:44:59","32.2","26.8","80.4","30.20","342","0","0","0.00","0.00"
"19:49:56","32.1","26.9","81","30.20","342","0","0","0.00","0.00"
"19:54:56","31.9","26.9","81.8","30.20","342","0","0","0.00","0.00"
"19:59:59","31.6","26.7","82","30.20","342","0.1","2","0.00","0.00"
"20:04:56","31.5","26.6","82","30.19","342","0.4","2.3","0.00","0.00"
"20:09:56","31.3","26.4","82","30.19","342","0","1","0.00","0.00"
"20:14:58","31","26.2","82","30.19","342","0","0","0.00","0.00"
"20:19:56","30.6","26","82.5","30.18","342","0","0","0.00","0.00"
"20:24:57","30.4","26","83.6","30.18","342","0.2","1.2","0.00","0.00"
"20:29:56","30.2","26","84.1","30.18","342","0","1.2","0.00","0.00"
"20:34:56","30","26","85","30.18","342","0.2","1.2","0.00","0.00"
"20:39:59","29.8","25.8","85","30.18","341","0.4","2.3","0.00","0.00"
"20:44:57","29.7","25.7","85.2","30.19","341","0.4","2.3","0.00","0.00"
"20:49:57","29.6","25.9","86","30.19","341","0.2","2.3","0.00","0.00"
"20:54:58","29.6","25.7","85.4","30.19","338","0.8","3.5","0.00","0.00"
"20:59:58","30","25.8","84.5","30.19","343","1.6","3.5","0.00","0.00"
"21:04:58","30.2","25.9","84","30.17","339","0.6","3.5","0.00","0.00"
"21:09:56","30.1","25.8","84","30.17","340","0","1.2","0.00","0.00"
"21:14:57","30","25.9","84.4","30.17","340","0","0","0.00","0.00"
"21:19:58","30","26","85","30.17","340","0","1.2","0.00","0.00"
"21:24:59","29.9","25.9","85","30.17","340","0","1.2","0.00","0.00"
"21:29:58","29.9","25.9","85","30.18","340","0","0","0.00","0.00"
"21:34:59","29.9","25.9","85","30.18","340","0","0","0.00","0.00"
"21:39:59","29.9","25.9","85","30.18","340","0","1","0.00","0.00"
"21:44:55","30","25.9","84.6","30.18","340","0.2","1.2","0.00","0.00"
"21:49:56","30.1","25.8","83.9","30.17","340","0","0","0.00","0.00"
"21:54:58","30.1","25.8","84.1","30.17","340","0","0","0.00","0.00"
"21:59:56","30","26","85","30.17","340","0","0","0.00","0.00"
"22:04:56","29.8","25.8","85","30.17","340","0","1.2","0.00","0.00"
"22:09:58","29.7","25.7","85","30.17","340","0","1","0.00","0.00"
"22:14:59","29.6","25.8","85.8","30.18","340","0","0","0.00","0.00"
"22:19:59","29.5","25.8","86","30.18","340","0","0","0.00","0.00"
"22:24:56","29.4","25.7","85.9","30.18","340","0","0","0.00","0.00"
"22:29:56","29.4","25.7","86","30.18","340","0","0","0.00","0.00"
"22:34:56","29.3","25.6","86","30.18","340","0","0","0.00","0.00"
"22:39:57","29.2","25.6","86.5","30.18","340","0.2","1.2","0.00","0.00"
"22:44:58","29.1","25.4","86","30.18","340","0","1.2","0.00","0.00"
"22:49:58","29","25.4","86.3","30.18","340","0.2","1.2","0.00","0.00"
"22:54:59","28.9","25.4","86.4","30.17","340","0.1","1.2","0.00","0.00"
"22:59:58","28.8","25.3","86.6","30.18","302","0.3","2","0.00","0.00"
"23:04:59","28.7","25.3","87","30.18","264","0.9","2.3","0.00","0.00"
"23:09:57","28.5","25.1","87","30.18","263","0.2","2","0.00","0.00"
"23:14:58","28.3","24.9","87","30.18","263","0","1","0.00","0.00"
"23:19:59","28.3","24.9","87","30.18","263","0","0","0.00","0.00"
"23:24:55","28.3","24.9","87","30.18","263","0","0","0.00","0.00"
"23:29:59","28.3","25.1","87.8","30.18","263","0.3","2.3","0.00","0.00"
"23:34:56","28.4","25.3","88","30.18","263","0.1","1.2","0.00","0.00"
"23:39:55","28.5","25.4","88","30.17","263","0","0","0.00","0.00"
"23:44:59","28.5","25.4","88","30.17","263","0","0","0.00","0.00"
"23:49:56","28.5","25.4","88","30.17","263","0.1","2.3","0.00","0.00"
"23:54:56","28.5","25.4","88","30.17","316","1","3.5","0.00","0.00"
"23:59:59","28.7","25.6","88","30.17","336","0.3","2","0.00","0.00"
